• In Italy
  • List of Countries
  • For 7 days
  • Water Temperature
  • Satellite Maps
  • Weather Map
  • Weather Widgets
  • user-avatar
    Login

    Hourly Weather Eisenstadt

    Today, 20 November, Monday

    Time Temperature Precipitation Wind Pressure Humidity
    00:00 -1°C° 0 mm 4 mps 721 mmHg 78%
    01:00 -2°C° 0 mm 4 mps 721 mmHg 80%
    02:00 -1°C° 0 mm 4 mps 721 mmHg 78%
    03:00 -1°C° 0 mm 4 mps 721 mmHg 76%
    04:00 -1°C° 0 mm 4 mps 721 mmHg 75%
    05:00 -1°C° 0.1 mm 4 mps 722 mmHg 74%
    06:00 -1°C° 0.1 mm 4 mps 722 mmHg 73%
    07:00 0°C° 0.1 mm 4 mps 722 mmHg 73%
    08:00 +1°C° 0.1 mm 5 mps 723 mmHg 69%
    09:00 +2°C° 0.1 mm 6 mps 723 mmHg 64%
    10:00 +3°C° 0.1 mm 6 mps 724 mmHg 60%
    11:00 +3°C° 0 mm 6 mps 723 mmHg 58%
    12:00 +4°C° 0 mm 6 mps 723 mmHg 56%
    13:00 +4°C° 0 mm 6 mps 723 mmHg 54%
    14:00 +3°C° 0 mm 5 mps 723 mmHg 58%
    15:00 +3°C° 0 mm 4 mps 723 mmHg 61%
    16:00 +2°C° 0 mm 3 mps 723 mmHg 65%
    17:00 +3°C° 0.1 mm 2 mps 723 mmHg 67%
    18:00 +3°C° 0.1 mm 2 mps 723 mmHg 68%
    19:00 +3°C° 0.1 mm 2 mps 723 mmHg 70%
    20:00 +3°C° 0.2 mm 2 mps 723 mmHg 72%
    21:00 +3°C° 0.2 mm 1 mps 723 mmHg 74%
    22:00 +3°C° 0.2 mm 1 mps 723 mmHg 76%
    23:00 +3°C° 0.2 mm 1 mps 723 mmHg 77%

    Tomorrow, 21 November, Tuesday

    Time Temperature Precipitation Wind Pressure Humidity
    00:00 +3°C° 0.2 mm 1 mps 722 mmHg 78%
    01:00 +3°C° 0.2 mm 1 mps 722 mmHg 79%
    02:00 +2°C° 0.4 mm 2 mps 721 mmHg 79%
    03:00 +2°C° 0.4 mm 2 mps 721 mmHg 79%
    04:00 +2°C° 0.4 mm 2 mps 720 mmHg 80%
    05:00 +2°C° 0.3 mm 2 mps 720 mmHg 80%
    06:00 +2°C° 0.3 mm 2 mps 720 mmHg 80%
    07:00 +3°C° 0.3 mm 2 mps 720 mmHg 80%
    08:00 +3°C° 0.2 mm 3 mps 720 mmHg 77%
    09:00 +4°C° 0.2 mm 3 mps 720 mmHg 75%
    10:00 +5°C° 0.2 mm 3 mps 720 mmHg 72%
    11:00 +7°C° 0 mm 3 mps 720 mmHg 70%
    12:00 +7°C° 0 mm 4 mps 720 mmHg 68%
    13:00 +8°C° 0 mm 4 mps 720 mmHg 66%
    14:00 +9°C° 0 mm 3 mps 720 mmHg 69%
    15:00 +8°C° 0 mm 3 mps 720 mmHg 72%
    16:00 +7°C° 0 mm 3 mps 720 mmHg 76%
    17:00 +7°C° 0 mm 3 mps 720 mmHg 77%
    18:00 +5°C° 0 mm 3 mps 721 mmHg 79%
    19:00 +5°C° 0 mm 3 mps 721 mmHg 80%
    20:00 +5°C° 0.3 mm 3 mps 721 mmHg 82%
    21:00 +5°C° 0.3 mm 3 mps 721 mmHg 83%
    22:00 +5°C° 0.3 mm 3 mps 721 mmHg 84%
    23:00 +5°C° 0.1 mm 3 mps 722 mmHg 84%

    Day after tomorrow, 22 November, Wednesday

    Time Temperature Precipitation Wind Pressure Humidity
    00:00 +5°C° 0.1 mm 3 mps 722 mmHg 83%
    01:00 +5°C° 0.1 mm 3 mps 722 mmHg 83%
    02:00 +6°C° 0 mm 2 mps 722 mmHg 82%
    03:00 +5°C° 0 mm 2 mps 722 mmHg 81%
    04:00 +5°C° 0 mm 2 mps 721 mmHg 80%
    05:00 +5°C° 0 mm 2 mps 722 mmHg 79%
    06:00 +5°C° 0 mm 2 mps 722 mmHg 79%
    07:00 +5°C° 0 mm 2 mps 722 mmHg 78%
    08:00 +6°C° 0 mm 2 mps 722 mmHg 74%
    09:00 +7°C° 0 mm 2 mps 722 mmHg 70%
    10:00 +9°C° 0 mm 2 mps 722 mmHg 66%
    11:00 +10°C° 0 mm 2 mps 722 mmHg 64%
    12:00 +12°C° 0 mm 2 mps 722 mmHg 62%
    13:00 +13°C° 0 mm 2 mps 722 mmHg 60%
    14:00 +12°C° 0 mm 1 mps 722 mmHg 66%
    15:00 +10°C° 0 mm 1 mps 722 mmHg 71%
    16:00 +9°C° 0 mm 1 mps 722 mmHg 76%
    17:00 +9°C° 0 mm 1 mps 722 mmHg 77%
    18:00 +8°C° 0 mm 1 mps 722 mmHg 78%
    19:00 +7°C° 0 mm 1 mps 722 mmHg 79%
    20:00 +7°C° 0 mm 1 mps 722 mmHg 78%
    21:00 +7°C° 0 mm 1 mps 722 mmHg 76%
    22:00 +7°C° 0 mm 1 mps 722 mmHg 75%
    23:00 +7°C° 0 mm 1 mps 722 mmHg 74%

    23 November, Thursday

    Time Temperature Precipitation Wind Pressure Humidity
    00:00 +6°C° 0 mm 1 mps 722 mmHg 74%
    01:00 +6°C° 0 mm 1 mps 722 mmHg 73%
    02:00 +6°C° 0 mm 1 mps 722 mmHg 73%
    03:00 +6°C° 0 mm 1 mps 722 mmHg 73%
    04:00 +5°C° 0 mm 1 mps 722 mmHg 73%
    05:00 +5°C° 0 mm 1 mps 722 mmHg 74%
    06:00 +5°C° 0 mm 1 mps 722 mmHg 74%
    07:00 +5°C° 0 mm 1 mps 722 mmHg 74%
    08:00 +6°C° 0 mm 1 mps 723 mmHg 71%
    09:00 +8°C° 0 mm 1 mps 723 mmHg 68%
    10:00 +9°C° 0 mm 1 mps 724 mmHg 65%
    11:00 +10°C° 0 mm 1 mps 724 mmHg 63%
    12:00 +11°C° 0 mm 1 mps 724 mmHg 61%
    13:00 +12°C° 0 mm 1 mps 724 mmHg 59%
    14:00 +11°C° 0 mm 1 mps 724 mmHg 64%
    15:00 +9°C° 0 mm 1 mps 724 mmHg 69%
    16:00 +7°C° 0 mm 0 mps 724 mmHg 74%
    17:00 +8°C° 0 mm 1 mps 725 mmHg 74%
    18:00 +7°C° 0 mm 1 mps 725 mmHg 74%
    19:00 +7°C° 0 mm 1 mps 725 mmHg 74%
    20:00 +7°C° 0 mm 1 mps 726 mmHg 73%
    21:00 +7°C° 0 mm 1 mps 726 mmHg 73%
    22:00 +6°C° 0 mm 1 mps 726 mmHg 72%
    23:00 +6°C° 0 mm 1 mps 726 mmHg 72%

    24 November, Friday

    Time Temperature Precipitation Wind Pressure Humidity
    00:00 +6°C° 0 mm 1 mps 726 mmHg 72%
    01:00 +6°C° 0 mm 1 mps 726 mmHg 72%
    02:00 +6°C° 0 mm 1 mps 726 mmHg 72%
    03:00 +6°C° 0 mm 1 mps 726 mmHg 72%
    04:00 +6°C° 0 mm 1 mps 726 mmHg 73%
    05:00 +6°C° 0 mm 1 mps 727 mmHg 73%
    06:00 +6°C° 0 mm 1 mps 727 mmHg 74%
    07:00 +6°C° 0 mm 1 mps 727 mmHg 74%
    08:00 +7°C° 0 mm 1 mps 727 mmHg 70%
    09:00 +8°C° 0 mm 1 mps 727 mmHg 66%
    10:00 +10°C° 0 mm 1 mps 727 mmHg 62%
    11:00 +11°C° 0 mm 1 mps 727 mmHg 59%
    12:00 +12°C° 0 mm 1 mps 727 mmHg 57%
    13:00 +13°C° 0 mm 2 mps 727 mmHg 54%
    14:00 +10°C° 0 mm 2 mps 726 mmHg 60%
    15:00 +9°C° 0 mm 2 mps 726 mmHg 65%
    16:00 +8°C° 0 mm 2 mps 726 mmHg 71%
    17:00 +7°C° 0 mm 2 mps 726 mmHg 72%
    18:00 +7°C° 0 mm 2 mps 726 mmHg 73%
    19:00 +6°C° 0 mm 2 mps 726 mmHg 75%
    20:00 +6°C° 0 mm 2 mps 726 mmHg 75%
    21:00 +6°C° 0 mm 2 mps 726 mmHg 76%
    22:00 +5°C° 0 mm 2 mps 727 mmHg 77%
    23:00 +5°C° 0 mm 2 mps 726 mmHg 78%

    25 November, Saturday

    Time Temperature Precipitation Wind Pressure Humidity
    00:00 +5°C° 0 mm 2 mps 726 mmHg 80%
    01:00 +5°C° 0 mm 2 mps 726 mmHg 81%
    02:00 +5°C° 0 mm 2 mps 726 mmHg 82%
    03:00 +4°C° 0 mm 2 mps 726 mmHg 83%
    04:00 +4°C° 0 mm 2 mps 725 mmHg 84%
    05:00 +3°C° 0 mm 3 mps 725 mmHg 84%
    06:00 +3°C° 0 mm 3 mps 725 mmHg 84%
    07:00 +3°C° 0 mm 3 mps 725 mmHg 84%
    08:00 +4°C° 0 mm 3 mps 725 mmHg 80%
    09:00 +5°C° 0 mm 3 mps 725 mmHg 76%
    10:00 +6°C° 0 mm 4 mps 725 mmHg 72%
    11:00 +7°C° 0 mm 4 mps 724 mmHg 70%
    12:00 +8°C° 0 mm 4 mps 724 mmHg 68%
    13:00 +10°C° 0 mm 4 mps 723 mmHg 66%
    14:00 +8°C° 0 mm 4 mps 723 mmHg 70%
    15:00 +8°C° 0 mm 3 mps 723 mmHg 74%
    16:00 +7°C° 0 mm 3 mps 722 mmHg 79%
    17:00 +7°C° 0 mm 3 mps 723 mmHg 81%
    18:00 +6°C° 0 mm 2 mps 723 mmHg 83%
    19:00 +6°C° 0 mm 2 mps 723 mmHg 85%
    20:00 +6°C° 0 mm 2 mps 723 mmHg 83%
    21:00 +6°C° 0 mm 2 mps 723 mmHg 82%
    22:00 +7°C° 0 mm 1 mps 723 mmHg 81%
    23:00 +6°C° 0 mm 1 mps 723 mmHg 79%
    Show more